Location: La Sioule Rivi�re
(46.3664°N, 3.3197°E)
Time: 12:47:38
(UTC+00:00)

Cosmos 1400 Rocket - Pass Details

Date: 29 October 2020
Orbit: 521 x 568 km, 81.2° (Epoch: 23 November)

Event Time Altitude Azimuth Distance (km) Brightness Sun altitude
Rises 17:05:51 0° 169° (S) 2,751 6.4 -5.8°
Reaches altitude 10° 17:08:08 10° 161° (SSE) 1,855 5.5 -6.2°
Maximum altitude 17:11:55 37° 94° (E) 889 3.4 -6.8°
Drops below altitude 10° 17:15:41 10° 27° (NNE) 1,851 5.1 -7.4°
Sets 17:17:57 0° 19° (NNE) 2,743 6.1 -7.8°
